Texarkana, AR

7:55 AM CST on January 16, 2018 (GMT -0600)
Texarkana Regional-Webb

Weather History for KTXK - February, 2013

Change the Weather History Date:

Sunday, February 10, 2013

  Actual Average Record
Temperature  
Mean Temperature 60 °F 47 °F  
Max Temperature 68 °F 58 °F 81 °F (1922)
Min Temperature 51 °F 37 °F 16 °F (1947)
Degree Days  
Heating Degree Days 5 18  
Month to date heating degree days 136 189  
Since 1 July heating degree days 1604 1911  
Cooling Degree Days 0 0  
Month to date cooling degree days 0 0  
Year to date cooling degree days 4 1  
Growing Degree Days 10 (Base 50)    
Moisture  
Dew Point 47 °F    
Average Humidity 60    
Maximum Humidity 100    
Minimum Humidity 20    
Precipitation  
Precipitation 0.26 in 0.14 in 1.06 in (2006)
Month to date precipitation 0.50 1.28  
Year to date precipitation 4.17 4.68  
Snow  
Snow 0.00 in - - ()
Month to date snowfall 0.0  
Since 1 July snowfall 2.1  
Snow Depth 0.00 in    
Sea Level Pressure  
Sea Level Pressure 29.84 in    
Wind  
Wind Speed 9 mph (SW)    
Max Wind Speed 28 mph    
Max Gust Speed 36 mph    
Visibility 8 miles    
Events Rain    
T = Trace of Precipitation, MM = Missing Value Source: NWS Daily Summary

Daily Weather History Graph

Daily Weather History Graph

Search for Another Location

Airport or City:

Trip Planner

Search our weather history database for the weather conditions in past years. The results will help you decide how hot, cold, wet, or windy it might be!

Date:

Astronomy

Feb. 10, 2013 Rise Set
Actual Time 7:04 AM CST 5:56 PM CST
Civil Twilight 6:38 AM CST 6:21 PM CST
Nautical Twilight 6:09 AM CST 6:51 PM CST
Astronomical Twilight 5:40 AM CST 7:20 PM CST
Moon 6:58 AM CST (2/10) 6:42 PM CST (2/10)
Length of Visible Light 11h 43m
Length of Day
10h 51m
New Moon, 0% of the Moon is Illuminated
Feb 10
New Moon
Feb 17
First Quarter
Feb 25
Full
Mar 4
Last Quarter
Mar 11
New

Hourly Weather History & Observations

Time (CST) Temp. Dew Point Humidity Pressure Visibility Wind Dir Wind Speed Gust Speed Precip Events Conditions
12:53 AM 53.1 °F 50.0 °F 89% 29.87 in 10.0 mi SSE 11.5 mph 16.1 mph N/A   Overcast
1:53 AM 55.9 °F 53.1 °F 90% 29.83 in 7.0 mi SE 11.5 mph - N/A   Overcast
2:40 AM 57.2 °F 55.4 °F 94% 29.79 in 6.0 mi SE 11.5 mph - N/A   Overcast
2:53 AM 57.9 °F 55.9 °F 93% 29.79 in 6.0 mi SSE 12.7 mph - N/A   Overcast
3:39 AM 59.0 °F 57.2 °F 94% 29.79 in 2.5 mi SSE 12.7 mph - N/A   Overcast
3:53 AM 59.0 °F 57.9 °F 96% 29.78 in 3.0 mi SSE 13.8 mph 20.7 mph 0.00 in Rain Light Rain
4:53 AM 60.1 °F 59.0 °F 96% 29.78 in 3.0 mi South 10.4 mph 19.6 mph 0.00 in   Overcast
5:14 AM 60.8 °F 60.8 °F 100% 29.78 in 2.5 mi South 12.7 mph 19.6 mph 0.00 in Rain Light Rain
5:32 AM 60.8 °F 60.8 °F 100% 29.77 in 3.0 mi South 15.0 mph 21.9 mph 0.00 in Rain Light Rain
5:53 AM 61.0 °F 61.0 °F 100% 29.77 in 4.0 mi South 16.1 mph 21.9 mph 0.01 in Rain Light Rain
6:20 AM 60.8 °F 59.0 °F 94% 29.83 in 2.5 mi West 24.2 mph 35.7 mph 0.10 in Rain Heavy Rain
6:28 AM 59.0 °F 55.4 °F 88% 29.82 in 3.0 mi West 12.7 mph 29.9 mph 0.13 in Rain Rain
6:53 AM 57.9 °F 55.9 °F 93% 29.80 in 5.0 mi South 4.6 mph - 0.14 in Rain Light Rain
7:53 AM 57.9 °F 57.0 °F 97% 29.79 in 9.0 mi South 4.6 mph - 0.09 in Rain Light Rain
8:53 AM 59.0 °F 57.9 °F 96% 29.79 in 10.0 mi WSW 6.9 mph 18.4 mph 0.02 in   Scattered Clouds
9:06 AM 59.0 °F 57.2 °F 94% 29.80 in 10.0 mi WSW 4.6 mph - N/A   Mostly Cloudy
9:53 AM 61.0 °F 57.9 °F 90% 29.81 in 10.0 mi WSW 9.2 mph - N/A   Mostly Cloudy
10:00 AM 62.6 °F 57.2 °F 82% 29.83 in 10.0 mi WSW 9.2 mph - N/A   Clear
10:53 AM 63.0 °F 48.9 °F 60% 29.81 in 10.0 mi WNW 13.8 mph - N/A   Clear
11:53 AM 64.0 °F 41.0 °F 43% 29.81 in 10.0 mi West 11.5 mph - N/A   Clear
12:53 PM 66.0 °F 36.0 °F 33% 29.79 in 10.0 mi West 15.0 mph 21.9 mph N/A   Clear
1:53 PM 66.0 °F 34.0 °F 30% 29.79 in 10.0 mi WSW 11.5 mph - N/A   Clear
2:53 PM 66.0 °F 25.0 °F 21% 29.80 in 10.0 mi West 16.1 mph 24.2 mph N/A   Clear
3:53 PM 64.9 °F 30.0 °F 27% 29.83 in 10.0 mi WSW 8.1 mph - N/A   Clear
4:53 PM 63.0 °F 30.0 °F 29% 29.86 in 10.0 mi WSW 8.1 mph - N/A   Mostly Cloudy
5:53 PM 61.0 °F 32.0 °F 34% 29.87 in 10.0 mi SW 8.1 mph - N/A   Scattered Clouds
6:53 PM 60.1 °F 34.0 °F 38% 29.90 in 10.0 mi SW 6.9 mph - N/A   Scattered Clouds
7:53 PM 57.9 °F 35.1 °F 42% 29.93 in 10.0 mi SW 5.8 mph - N/A   Clear
8:53 PM 57.9 °F 34.0 °F 41% 29.95 in 10.0 mi West 4.6 mph - N/A   Clear
9:53 PM 57.9 °F 33.1 °F 39% 29.99 in 10.0 mi West 8.1 mph - N/A   Clear
10:53 PM 55.9 °F 33.1 °F 42% 30.01 in 10.0 mi West 3.5 mph - N/A   Clear
11:53 PM 53.1 °F 33.1 °F 47% 30.01 in 10.0 mi NW 3.5 mph - N/A   Clear